World > North America > United States > New York

Hourly Pittsfield, NY Regional Weather

Feedback E-mail the Weather

Quick WX

Pittsfield, NY Weather Maps

°F °C°F °C
Pittsfield Weather Map
UTC Time: 6/29/2022, 03:01
Your Time:

Pittsfield, NY Regional Weather

Expires:202206290300;;361195
ASUS41 KBGM 290210
RWRBGM

REGIONAL WEATHER ROUNDUP
NATIONAL WEATHER SERVICE BINGHAMTON NY
1000 PM EDT TUE JUN 28 2022

Note: "fair" indicates few or no clouds below 12,000 feet with no
significant weather and/or obstructions to visibility.

* = Station(s) that does not report precipitation, such as rain, 
snow, etc, also no thunder or fog.


NYZ009-015>018-022>025-036-037-044>046-055>057-062-290300
...Central New York...
  
CITY           SKY/WX    TMP DP  RH WIND       PRES   REMARKS
Binghamton     CLEAR     63  48  58 S3        30.21R                  
Cortland       FAIR      57  52  82 CALM      30.22R                  
Dansville      CLEAR     63  53  70 CALM      30.21R                  
Elmira         CLEAR     62  53  72 CALM      30.18R                  
Endicott       CLEAR     61  52  72 CALM      30.19R                  
Ithaca         CLEAR     58  57  97 E3        30.21R                  
Hamilton       CLEAR     55  54  94 CALM      30.22R                  
Monticello     PTCLDY    61  52  72 CALM      30.23R                  
Norwich        CLEAR     57  54  88 CALM      30.24S                  
Oneonta        CLEAR     57  52  82 CALM      30.23R                  
Penn Yan       CLEAR     59  53  80 CALM      30.21R                  
Rome           CLEAR     62  54  74 CALM      30.20R                  
Seneca Falls   CLEAR     63  54  72 NE3       30.21R                  
Sidney         CLEAR     55  54  94 CALM      30.22R                  
Skaneateles    FAIR      59  57  94 CALM      30.21R                  
Syracuse       PTCLDY    62  53  72 CALM      30.20R                  
$$
 

SKY/WX - Weather  TMP - Temperature  DP - Dew Point  RH - Humidity
WIND - Wind Direction/Speed PRES - Barometric Pressure VSB - Visibility
WCI - Wind Chill Index E13G22 Wind - East Wind 13 mph/Gusts of 22 mph

Trending Headlines

Pittsfield Radar Loop



Pittsfield Quick Facts


National Two Day Weather Forecast


E-mail the Pittsfield Weather Forecast

Voice your opinion or tell us about page issues...